Regional Weather Roundup
Issued by NWS

Home | Current Version | Previous Version | Text Only | Print | Product List | Glossary Off
Versions: 1 2 3 4 5 6 7 8 9 10 11 12 13 14 15 16 17 18 19 20 21 22 23 24 25 26 27 28 29 30 31 32 33 34 35 36 37 38 39 40 41 42 43 44 45 46 47 48 49 50

000
ASUS43 KFSD 020310
RWRSD

WEATHER ROUNDUP FOR SOUTH DAKOTA
NATIONAL WEATHER SERVICE SIOUX FALLS SD
1000 PM CDT FRI AUG 01 2014

NOTE: "FAIR" INDICATES FEW OR NO CLOUDS BELOW 12,000 FEET WITH NO
SIGNIFICANT WEATHER AND/OR OBSTRUCTIONS TO VISIBILITY.


SDZ001>005-009-010-012>017-020400-
NORTHWEST AND NORTH CENTRAL SOUTH DAKOTA

CITY           SKY/WX    TMP DP  RH WIND       PRES   REMARKS
BUFFALO          N/A     73  55  53 N13       30.01R
FAITH            N/A     74  56  53 SE8       30.01R
MOBRIDGE         N/A     75  58  55 MISG      30.00R
$$

SDZ012>016-024>037-041>051-057-063-072>074-020400-
SOUTHWEST AND SOUTH CENTRAL SOUTH DAKOTA

CITY           SKY/WX    TMP DP  RH WIND       PRES   REMARKS
RAPID CTY ARPT MOCLDY    75  48  38 SW5       30.06S
PIERRE         LGT RAIN  69  60  73 SE29G40   29.94F
CUSTER         CLEAR     63  45  51 CALM      30.25R
ELLSWORTH AFB  MOCLDY    72  51  47 W6        30.06R
PHILIP         MOCLDY    74  53  48 SE9       30.02R
PINE RIDGE     MOCLDY    65  55  70 E6        30.09S
WINNER         TSTM      72  56  57 E23G29    30.07F
$$

SDZ004>011-016>023-039-040-020400-
NORTHEAST SOUTH DAKOTA

CITY           SKY/WX    TMP DP  RH WIND       PRES   REMARKS
ABERDEEN       PTCLDY    67  59  75 E6        30.06R
WATERTOWN      PTCLDY    72  60  66 SE5       30.08R
SISSETON         N/A     67  65  93 CALM      30.05R
$$

SDZ017-020-022-023-036>040-048>070-020400-
SOUTHEAST SOUTH DAKOTA

CITY           SKY/WX    TMP DP  RH WIND       PRES   REMARKS
SIOUX FALLS    PTCLDY    69  58  67 CALM      30.09R
HURON          CLEAR     73  56  54 SE5       30.06R
CHAMBERLAIN    CLOUDY    75  55  50 W15       30.13R
MITCHELL       CLEAR     71  59  65 SE9       30.08R
YANKTON        CLEAR     70  61  73 CALM      30.10R
$$

ABBREVIATIONS USED IN REMARKS
   TC - TEMPERATURE IN CELSIUS
  WCI - WIND CHILL INDEX
   HX - HEAT INDEX
  VSB - VISIBILITY



USA.gov is the U.S. government's official web portal to all federal, state and local government web resources and services.